Retour au catalogue

STARLINK-33965

ActifCommunicationsVLEO
NORAD 64755·PAYLOAD·🇺🇸 United States

Lancé Jul 8, 2025 depuis Cape Canaveral Space Force Station

Loading…

Prochains Passages (prochaines 24 heures)

TLE

FraisSource: CelesTrak SupGP

Époque: Sep 15, 2026, 02:57 UTC

1 64755C 25147A   26258.12340278 -.00023989  00000+0 -70880-3 0  2582
2 64755  53.1576  78.6665 0001122  84.9633 287.0286 15.34400979    19

Suivez STARLINK-33965 en temps réel avec AllMySat

Download on the App Store